CW2014 Weather Reports


time (UTC)temp
C
wind
direction
speed
KPH
gust
KPH
rain 1hr
cm
rain 24hr
cm
rain mn
cm
humidity
%
barometer
mb
20260905212025 37 313 3.2 14.5 0.00 0.00 0.00 31 1009.9
20260905211548 37 316 3.2 14.5 0.00 0.00 0.00 30 1009.9
20260905211026 37 54 1.6 6.4 0.00 0.00 0.00 31 1010.0
20260905210526 37 17 3.2 6.4 0.00 0.00 0.00 30 1010.2
20260905210051 37 0 0.0 4.8 0.00 0.00 0.00 31 1010.3
20260905205524 37 0 0.0 8.0 0.00 0.00 0.00 30 1010.3
20260905205026 37 0 1.6 9.7 0.00 0.00 0.00 30 1010.4
20260905204549 37 213 3.2 9.7 0.00 0.00 0.00 30 1010.5
20260905204024 37 0 0.0 8.0 0.00 0.00 0.00 29 1010.6
20260905203524 37 0 0.0 12.9 0.00 0.00 0.00 30 1010.7
20260905203048 37 197 3.2 12.9 0.00 0.00 0.00 30 1010.8
20260905202524 37 229 3.2 14.5 0.00 0.00 0.00 30 1010.9
20260905202025 37 246 3.2 17.7 0.00 0.00 0.00 30 1010.9
20260905201601 37 247 6.4 17.7 0.00 0.00 0.00 29 1011.1
20260905201024 38 334 3.2 11.3 0.00 0.00 0.00 29 1011.1
20260905200524 38 0 3.2 14.5 0.00 0.00 0.00 29 1011.1
20260905200047 38 240 3.2 14.5 0.00 0.00 0.00 29 1011.1
20260905195527 38 260 3.2 14.5 0.00 0.00 0.00 29 1011.2
20260905195024 37 265 1.6 6.4 0.00 0.00 0.00 30 1011.2
20260905194551 37 145 1.6 12.9 0.00 0.00 0.00 30 1011.1
20260905194025 37 325 3.2 12.9 0.00 0.00 0.00 30 1011.2
20260905193524 37 294 4.8 16.1 0.00 0.00 0.00 30 1011.4
20260905193101 36 211 3.2 16.1 0.00 0.00 0.00 31 1011.5
20260905192524 36 47 1.6 11.3 0.00 0.00 0.00 30 1011.6
20260905192025 36 303 3.2 11.3 0.00 0.00 0.00 30 1011.7
20260905191546 37 261 1.6 11.3 0.00 0.00 0.00 30 1011.6
20260905191026 37 251 3.2 11.3 0.00 0.00 0.00 29 1011.8
20260905190525 37 301 1.6 12.9 0.00 0.00 0.00 29 1011.8
20260905190047 37 259 3.2 12.9 0.00 0.00 0.00 29 1012.0
20260905185526 36 267 1.6 14.5 0.00 0.00 0.00 29 1012.1
20260905185024 37 251 4.8 14.5 0.00 0.00 0.00 29 1012.1
20260905184556 37 0 3.2 11.3 0.00 0.00 0.00 28 1012.2
20260905184024 37 250 0.0 14.5 0.00 0.00 0.00 28 1012.2
20260905183527 37 131 3.2 14.5 0.00 0.00 0.00 29 1012.3
20260905183048 37 190 1.6 12.9 0.00 0.00 0.00 29 1012.3
20260905182531 37 231 4.8 11.3 0.00 0.00 0.00 29 1012.4
20260905182026 37 271 1.6 11.3 0.00 0.00 0.00 28 1012.4
20260905181608 37 192 3.2 9.7 0.00 0.00 0.00 28 1012.5
20260905181027 37 173 1.6 12.9 0.00 0.00 0.00 29 1012.5
20260905180522 37 188 3.2 12.9 0.00 0.00 0.00 29 1012.7
20260905180055 37 282 1.6 12.9 0.00 0.00 0.00 29 1012.6
20260905175525 36 190 3.2 14.5 0.00 0.00 0.00 29 1012.7
20260905175024 36 152 3.2 14.5 0.00 0.00 0.00 30 1012.5
20260905174554 36 130 0.0 8.0 0.00 0.00 0.00 31 1012.5
20260905174027 36 128 0.0 8.0 0.00 0.00 0.00 30 1012.7
20260905173525 36 102 0.0 8.0 0.00 0.00 0.00 31 1012.6
20260905173042 36 192 1.6 9.7 0.00 0.00 0.00 31 1012.6
20260905172523 35 123 3.2 9.7 0.00 0.00 0.00 32 1012.5
20260905172027 35 5 1.6 8.0 0.00 0.00 0.00 32 1012.5
20260905171550 35 71 0.0 11.3 0.00 0.00 0.00 31 1012.6
20260905171023 36 77 3.2 11.3 0.00 0.00 0.00 31 1012.7
20260905170523 35 0 0.0 8.0 0.00 0.00 0.00 32 1012.6
20260905170047 35 360 1.6 8.0 0.00 0.00 0.00 32 1012.7
20260905165525 35 101 1.6 8.0 0.00 0.00 0.00 31 1012.7
20260905165028 35 156 1.6 6.4 0.00 0.00 0.00 33 1012.7
20260905164546 35 0 1.6 6.4 0.00 0.00 0.00 33 1012.7
20260905164025 35 184 1.6 6.4 0.00 0.00 0.00 34 1012.7
20260905163525 34 58 1.6 6.4 0.00 0.00 0.00 35 1012.6
20260905163054 34 329 0.0 6.4 0.00 0.00 0.00 35 1012.6
20260905162526 34 35 1.6 6.4 0.00 0.00 0.00 35 1012.7
20260905162029 33 199 0.0 8.0 0.00 0.00 0.00 36 1012.7
20260905161559 33 170 3.2 8.0 0.00 0.00 0.00 37 1012.7
20260905161025 33 319 0.0 6.4 0.00 0.00 0.00 37 1012.9
20260905160525 33 0 1.6 6.4 0.00 0.00 0.00 37 1012.8
20260905160048 33 250 0.0 8.0 0.00 0.00 0.00 37 1012.7
20260905155526 33 152 1.6 8.0 0.00 0.00 0.00 38 1012.6
20260905155023 32 136 0.0 8.0 0.00 0.00 0.00 40 1012.4
20260905154608 32 175 1.6 8.0 0.00 0.00 0.00 41 1012.4
20260905154023 32 155 1.6 8.0 0.00 0.00 0.00 43 1012.5
20260905153524 31 0 3.2 8.0 0.00 0.00 0.00 42 1012.4
20260905153050 31 148 1.6 4.8 0.00 0.00 0.00 45 1012.3
20260905152525 31 148 0.0 8.0 0.00 0.00 0.00 46 1012.3
20260905152025 31 0 1.6 8.0 0.00 0.00 0.00 46 1012.3
20260905151550 31 152 1.6 6.4 0.00 0.00 0.00 47 1012.3
20260905151029 31 165 0.0 8.0 0.00 0.00 0.00 46 1012.3
20260905150528 30 172 1.6 8.0 0.00 0.00 0.00 47 1012.2
20260905150045 30 150 1.6 8.0 0.00 0.00 0.00 49 1012.2
20260905145524 30 150 1.6 8.0 0.00 0.00 0.00 49 1012.2
20260905145023 29 65 1.6 4.8 0.00 0.00 0.00 51 1012.1
20260905144550 28 142 1.6 6.4 0.00 0.00 0.00 52 1012.2
20260905144032 28 142 1.6 6.4 0.00 0.00 0.00 52 1012.1
20260905143524 28 142 0.0 6.4 0.00 0.00 0.00 52 1012.1
20260905143047 28 142 1.6 6.4 0.00 0.00 0.00 52 1012.1
20260905142524 28 128 1.6 6.4 0.00 0.00 0.00 52 1012.1
20260905142023 28 192 0.0 6.4 0.00 0.00 0.00 54 1012.1
20260905141555 27 98 1.6 9.7 0.00 0.00 0.00 55 1012.1
20260905141029 27 139 3.2 9.7 0.00 0.00 0.00 55 1012.0
20260905140523 27 143 1.6 8.0 0.00 0.00 0.00 56 1011.9
20260905140050 27 146 1.6 8.0 0.00 0.00 0.00 56 1011.9
20260905135525 27 149 3.2 8.0 0.00 0.00 0.00 57 1011.9
20260905135025 27 149 1.6 8.0 0.00 0.00 0.00 56 1011.9
20260905134548 27 149 1.6 4.8 0.00 0.00 0.00 56 1011.8
20260905134025 27 95 1.6 4.8 0.00 0.00 0.00 57 1011.7
20260905133524 26 95 1.6 4.8 0.00 0.00 0.00 57 1011.6
20260905133052 26 95 1.6 4.8 0.00 0.00 0.00 57 1011.5
20260905132523 26 95 1.6 3.2 0.00 0.00 0.00 56 1011.4
20260905132025 26 95 0.0 3.2 0.00 0.00 0.00 56 1011.3
20260905131608 26 95 0.0 3.2 0.00 0.00 0.00 56 1011.4
20260905131025 26 95 0.0 3.2 0.00 0.00 0.00 55 1011.2
20260905130527 26 95 1.6 4.8 0.00 0.00 0.00 56 1011.2
20260905130046 26 95 1.6 4.8 0.00 0.00 0.00 56 1011.2
20260905125524 26 95 1.6 4.8 0.00 0.00 0.00 56 1011.2
20260905125025 26 0 1.6 6.4 0.00 0.00 0.00 55 1011.1
20260905124545 26 95 1.6 6.4 0.00 0.00 0.00 55 1011.1
20260905124024 26 87 1.6 4.8 0.00 0.00 0.00 55 1011.1
20260905123526 27 87 1.6 4.8 0.00 0.00 0.00 55 1011.0
20260905123057 27 87 1.6 4.8 0.00 0.00 0.00 55 1011.0
20260905122525 27 0 1.6 3.2 0.00 0.00 0.00 55 1011.0
20260905122023 27 154 0.0 3.2 0.00 0.00 0.00 55 1011.0
20260905121548 27 154 1.6 3.2 0.00 0.00 0.00 54 1011.0
20260905121024 27 154 0.0 3.2 0.00 0.00 0.00 54 1011.0
20260905120525 27 154 0.0 3.2 0.00 0.00 0.00 54 1010.9
20260905120048 27 0 0.0 3.2 0.00 0.00 0.00 54 1010.8
20260905115526 27 0 0.0 3.2 0.00 0.00 0.00 54 1010.8
20260905115026 27 154 0.0 3.2 0.00 0.00 0.00 54 1010.8
20260905114544 27 0 0.0 3.2 0.00 0.00 0.00 54 1010.8
20260905114023 27 154 0.0 3.2 0.00 0.00 0.00 54 1010.8
20260905113523 27 0 0.0 4.8 0.00 0.00 0.00 53 1010.7
20260905113048 27 0 0.0 4.8 0.00 0.00 0.00 53 1010.7
20260905112527 27 0 1.6 4.8 0.00 0.00 0.00 52 1010.7
20260905112030 27 154 1.6 4.8 0.00 0.00 0.00 52 1010.7
20260905111557 27 154 1.6 4.8 0.00 0.00 0.00 51 1010.8
20260905111023 27 154 1.6 4.8 0.00 0.00 0.00 51 1010.7
20260905110525 27 154 1.6 4.8 0.00 0.00 0.00 51 1010.7
20260905110101 27 117 1.6 3.2 0.00 0.00 0.00 51 1010.6
20260905105528 27 117 1.6 3.2 0.00 0.00 0.00 51 1010.6
20260905105025 27 117 0.0 4.8 0.00 0.00 0.00 50 1010.6
20260905104610 27 0 0.0 4.8 0.00 0.00 0.00 50 1010.6
20260905104023 27 117 1.6 4.8 0.00 0.00 0.00 50 1010.5
20260905103524 28 117 0.0 3.2 0.00 0.00 0.00 50 1010.5
20260905103049 28 0 0.0 3.2 0.00 0.00 0.00 49 1010.5
20260905102525 28 117 1.6 4.8 0.00 0.00 0.00 49 1010.5
20260905102025 28 117 0.0 4.8 0.00 0.00 0.00 49 1010.5
20260905101547 28 117 1.6 4.8 0.00 0.00 0.00 48 1010.5
20260905101028 28 112 1.6 4.8 0.00 0.00 0.00 48 1010.4
20260905100526 28 0 1.6 4.8 0.00 0.00 0.00 48 1010.4
20260905100046 28 112 0.0 3.2 0.00 0.00 0.00 47 1010.4
20260905095524 28 112 0.0 3.2 0.00 0.00 0.00 47 1010.4
20260905095028 28 0 0.0 3.2 0.00 0.00 0.00 47 1010.4
20260905094544 28 0 0.0 3.2 0.00 0.00 0.00 46 1010.3
20260905094023 28 112 0.0 4.8 0.00 0.00 0.00 46 1010.4
20260905093530 28 0 0.0 4.8 0.00 0.00 0.00 45 1010.4
20260905093048 28 112 1.6 4.8 0.00 0.00 0.00 46 1010.4
20260905092525 28 112 1.6 3.2 0.00 0.00 0.00 45 1010.4
20260905092025 29 112 0.0 3.2 0.00 0.00 0.00 45 1010.4
20260905091605 29 112 0.0 3.2 0.00 0.00 0.00 45 1010.4
20260905091027 29 0 0.0 3.2 0.00 0.00 0.00 45 1010.3
20260905090524 29 112 1.6 3.2 0.00 0.00 0.00 45 1010.3
20260905090050 29 112 0.0 3.2 0.00 0.00 0.00 45 1010.4
20260905085527 29 0 0.0 3.2 0.00 0.00 0.00 44 1010.4
20260905085026 29 0 0.0 3.2 0.00 0.00 0.00 45 1010.4
20260905084606 29 112 0.0 3.2 0.00 0.00 0.00 44 1010.4
20260905084025 29 112 0.0 3.2 0.00 0.00 0.00 44 1010.4
20260905083524 29 9 0.0 3.2 0.00 0.00 0.00 44 1010.4
20260905083045 30 9 0.0 3.2 0.00 0.00 0.00 43 1010.5
20260905082524 30 0 0.0 3.2 0.00 0.00 0.00 42 1010.4
20260905082026 30 9 0.0 3.2 0.00 0.00 0.00 42 1010.4
20260905081543 30 9 0.0 3.2 0.00 0.00 0.00 42 1010.3
20260905081023 30 9 0.0 3.2 0.00 0.00 0.00 42 1010.4
20260905080524 30 0 0.0 4.8 0.00 0.00 0.00 43 1010.4
20260905080057 30 9 0.0 4.8 0.00 0.00 0.00 42 1010.4
20260905075523 30 9 1.6 4.8 0.00 0.00 0.00 42 1010.5
20260905075026 30 0 0.0 3.2 0.00 0.00 0.00 41 1010.5
20260905074553 30 207 0.0 3.2 0.00 0.00 0.00 41 1010.3
20260905074024 30 0 0.0 1.6 0.00 0.00 0.00 40 1010.4
20260905073524 30 0 0.0 4.8 0.00 0.00 0.00 40 1010.4
20260905073047 30 0 0.0 4.8 0.00 0.00 0.00 40 1010.3
20260905072524 30 0 1.6 4.8 0.00 0.00 0.00 40 1010.3
20260905072025 30 0 1.6 6.4 0.00 0.00 0.00 40 1010.3
20260905071547 30 214 1.6 6.4 0.00 0.00 0.00 40 1010.1
20260905071028 30 211 0.0 6.4 0.00 0.00 0.00 41 1010.2
20260905070523 30 0 1.6 6.4 0.00 0.00 0.00 41 1010.2
20260905070105 31 254 0.0 3.2 0.00 0.00 0.00 41 1010.2
20260905065527 31 254 0.0 3.2 0.00 0.00 0.00 40 1010.2
20260905065023 31 265 0.0 3.2 0.00 0.00 0.00 40 1010.2
20260905064550 31 0 0.0 3.2 0.00 0.00 0.00 40 1010.2
20260905064026 31 265 0.0 3.2 0.00 0.00 0.00 39 1010.1
20260905063525 31 0 0.0 3.2 0.00 0.00 0.00 39 1010.0
20260905063047 31 0 0.0 3.2 0.00 0.00 0.00 39 1010.1
20260905062527 31 254 0.0 3.2 0.00 0.00 0.00 38 1009.9
20260905062026 31 259 0.0 3.2 0.00 0.00 0.00 38 1009.9
20260905061548 31 0 0.0 3.2 0.00 0.00 0.00 38 1009.9
20260905061024 31 261 1.6 3.2 0.00 0.00 0.00 37 1009.9
20260905060525 32 0 0.0 3.2 0.00 0.00 0.00 37 1009.9
20260905060048 32 240 0.0 3.2 0.00 0.00 0.00 37 1009.8
20260905055524 32 0 0.0 3.2 0.00 0.00 0.00 36 1009.9
20260905055023 32 267 0.0 1.6 0.00 0.00 0.00 35 1009.8
20260905054558 32 267 0.0 3.2 0.00 0.00 0.00 35 1009.7
20260905054026 32 0 0.0 3.2 0.00 0.00 0.00 35 1009.7
20260905053524 32 0 0.0 3.2 0.00 0.00 0.00 35 1009.7
20260905053050 32 265 1.6 3.2 0.00 0.00 0.00 34 1009.7
20260905052525 32 260 0.0 3.2 0.00 0.00 0.00 34 1009.7
20260905052028 33 0 0.0 4.8 0.00 0.00 0.00 33 1009.6
20260905051547 33 262 1.6 4.8 0.00 0.00 0.00 33 1009.7
20260905051024 33 264 1.6 6.4 0.00 0.00 0.00 33 1009.7
20260905050524 33 0 1.6 6.4 0.00 0.00 0.00 33 1009.7
20260905050100 33 269 1.6 4.8 0.00 0.00 0.00 32 1009.6
20260905045524 33 271 1.6 4.8 0.00 0.00 0.00 32 1009.5
20260905045025 33 302 0.0 4.8 0.00 0.00 0.00 32 1009.5
20260905044554 33 246 0.0 4.8 0.00 0.00 0.00 32 1009.5
20260905044023 33 284 1.6 4.8 0.00 0.00 0.00 31 1009.5
20260905043523 33 273 1.6 9.7 0.00 0.00 0.00 31 1009.5
20260905043048 34 279 1.6 9.7 0.00 0.00 0.00 31 1009.5
20260905042525 34 274 1.6 11.3 0.00 0.00 0.00 30 1009.5
20260905042024 34 281 1.6 12.9 0.00 0.00 0.00 30 1009.5
20260905041554 34 296 3.2 12.9 0.00 0.00 0.00 30 1009.4
20260905041025 34 269 3.2 11.3 0.00 0.00 0.00 30 1009.4
20260905040525 35 288 3.2 11.3 0.00 0.00 0.00 30 1009.4
20260905040055 35 240 3.2 11.3 0.00 0.00 0.00 29 1009.2
20260905035524 35 268 4.8 14.5 0.00 0.00 0.00 29 1009.2
20260905035024 35 256 4.8 14.5 0.00 0.00 0.00 29 1009.1
20260905034548 35 288 4.8 14.5 0.00 0.00 0.00 29 1009.1
20260905034024 35 293 4.8 19.3 0.00 0.00 0.00 30 1009.0
20260905033524 35 273 4.8 19.3 0.00 0.00 0.00 30 1009.0
20260905033051 35 267 4.8 11.3 0.00 0.00 0.00 31 1008.9
20260905032525 35 215 1.6 6.4 0.00 0.00 0.00 32 1008.8
20260905032024 35 198 1.6 6.4 0.00 0.00 0.00 32 1008.8
20260905031553 35 278 0.0 1.6 0.00 0.00 0.00 33 1008.7
20260905031026 35 0 0.0 0.0 0.00 0.00 0.00 33 1008.6
20260905030523 35 0 0.0 0.0 0.00 0.00 0.00 33 1008.5
20260905030049 35 0 0.0 0.0 0.00 0.00 0.00 32 1008.4
20260905025522 35 0 0.0 0.0 0.00 0.00 0.00 32 1008.3
20260905025027 35 0 0.0 0.0 0.00 0.00 0.00 32 1008.2
20260905024547 35 0 0.0 0.0 0.00 0.00 0.00 32 1008.2
20260905024027 35 0 0.0 0.0 0.00 0.00 0.00 32 1008.3
20260905023524 35 0 0.0 1.6 0.00 0.00 0.00 32 1008.3
20260905023046 35 0 0.0 1.6 0.00 0.00 0.00 31 1008.3
20260905022528 35 0 0.0 1.6 0.00 0.00 0.00 31 1008.2
20260905022024 36 0 0.0 1.6 0.00 0.00 0.00 31 1008.1
20260905021553 36 0 0.0 1.6 0.00 0.00 0.00 30 1008.1
20260905021027 36 0 0.0 1.6 0.00 0.00 0.00 30 1008.1
20260905020523 36 0 0.0 1.6 0.00 0.00 0.00 30 1008.1
20260905020056 36 0 0.0 3.2 0.00 0.00 0.00 30 1008.0
20260905015524 36 278 0.0 4.8 0.00 0.00 0.00 30 1008.0
20260905015024 36 0 0.0 4.8 0.00 0.00 0.00 30 1007.9
20260905014547 36 284 1.6 4.8 0.00 0.00 0.00 29 1008.0
20260905014027 36 293 0.0 4.8 0.00 0.00 0.00 29 1007.9
20260905013529 36 0 1.6 6.4 0.00 0.00 0.00 29 1007.9
20260905013050 36 278 0.0 6.4 0.00 0.00 0.00 30 1007.9
20260905012527 36 306 1.6 11.3 0.00 0.00 0.00 29 1007.8
20260905012027 36 304 1.6 11.3 0.00 0.00 0.00 29 1007.8
20260905011548 37 226 3.2 12.9 0.00 0.00 0.00 29 1007.7
20260905011028 37 287 3.2 12.9 0.00 0.00 0.00 29 1007.7
20260905010526 37 293 3.2 9.7 0.00 0.00 0.00 29 1007.8
20260905005525 37 321 0.0 8.0 0.00 0.00 0.00 28 1007.8
20260905005025 37 0 3.2 8.0 0.00 0.00 0.00 28 1007.9
20260905004547 37 268 1.6 9.7 0.00 0.00 0.00 28 1007.9
20260905004026 37 169 3.2 11.3 0.00 0.00 0.00 28 1007.9
20260905003527 37 250 4.8 14.5 0.00 0.00 0.00 28 1007.8
20260905003044 37 192 4.8 14.5 0.00 0.00 0.00 27 1007.8
20260905002523 38 231 1.6 12.9 0.00 0.00 0.00 27 1007.8
20260905002027 38 276 3.2 11.3 0.00 0.00 0.00 27 1007.8
20260905001548 38 313 3.2 14.5 0.00 0.00 0.00 27 1007.7
20260905001024 38 208 4.8 14.5 0.00 0.00 0.00 27 1007.9
20260905000526 38 0 4.8 14.5 0.00 0.00 0.00 27 1007.9
20260905000048 38 0 0.0 4.8 0.00 0.00 0.00 29 1008.0
20260904235523 38 190 1.6 8.0 0.00 0.00 0.00 29 1008.0
20260904235024 37 153 3.2 12.9 0.00 0.00 0.00 29 1007.9
20260904234551 37 150 3.2 19.3 0.00 0.00 0.00 29 1007.9
20260904234024 38 93 8.0 19.3 0.00 0.00 0.00 29 1008.0
20260904233524 38 171 3.2 11.3 0.00 0.00 0.00 29 1008.0
20260904233045 38 180 3.2 11.3 0.00 0.00 0.00 29 1008.0
20260904232526 38 203 3.2 11.3 0.00 0.00 0.00 29 1007.9
20260904232026 38 144 1.6 9.7 0.00 0.00 0.00 29 1008.0
20260904231542 37 130 0.0 12.9 0.00 0.00 0.00 29 1008.0
20260904231023 37 163 4.8 12.9 0.00 0.00 0.00 30 1008.1
20260904230524 37 149 3.2 17.7 0.00 0.00 0.00 30 1008.1
20260904225529 37 173 4.8 14.5 0.00 0.00 0.00 30 1008.1
20260904225025 38 274 4.8 12.9 0.00 0.00 0.00 29 1008.2
20260904224604 38 248 1.6 11.3 0.00 0.00 0.00 29 1008.3
20260904224028 38 306 1.6 11.3 0.00 0.00 0.00 28 1008.4
20260904223526 38 0 0.0 16.1 0.00 0.00 0.00 29 1008.5
20260904223047 37 250 6.4 17.7 0.00 0.00 0.00 30 1008.6
20260904222524 37 208 8.0 17.7 0.00 0.00 0.00 30 1008.5
20260904222025 38 190 3.2 16.1 0.00 0.00 0.00 31 1008.5
20260904221546 38 109 8.0 16.1 0.00 0.00 0.00 31 1008.6
20260904221023 38 0 1.6 9.7 0.00 0.00 0.00 30 1008.6
20260904220524 38 0 0.0 16.1 0.00 0.00 0.00 30 1008.7
20260904220054 38 147 4.8 16.1 0.00 0.00 0.00 30 1008.7
20260904215528 38 207 4.8 22.5 0.00 0.00 0.00 30 1008.8
20260904215027 38 171 8.0 22.5 0.00 0.00 0.00 30 1008.9
20260904214554 38 140 4.8 17.7 0.00 0.00 0.00 31 1008.9
20260904214028 38 5 3.2 17.7 0.00 0.00 0.00 29 1009.1
20260904213525 38 205 4.8 16.1 0.00 0.00 0.00 29 1009.2
20260904213053 38 186 3.2 16.1 0.00 0.00 0.00 29 1009.2
20260904212527 38 155 6.4 16.1 0.00 0.00 0.00 30 1009.3